Date,TemperatureHighF,TemperatureAvgF,TemperatureLowF,DewpointHighF,DewpointAvgF,DewpointLowF,HumidityHigh,HumidityAvg,HumidityLow,PressureMaxIn,PressureMinIn,WindSpeedMaxMPH,WindSpeedAvgMPH,GustSpeedMaxMPH,PrecipitationSumIn
2013-1-1,50.5,46.8,43.1,50.0,44.7,35.0,98,93,69,30.12,29.96,6,0,6,1.03
2013-1-2,47.0,41.4,38.6,46.4,40.3,36.8,100,96,93,30.12,30.00,8,0,8,0.01
2013-1-3,44.4,36.2,26.8,34.7,31.8,25.2,94,85,57,30.37,30.16,1,0,7,0.00
2013-1-4,47.6,32.8,23.9,29.8,26.2,22.5,95,79,45,30.43,30.34,2,0,9,0.00
2013-1-5,48.6,39.5,24.7,38.5,30.4,23.0,93,72,47,30.40,30.24,7,0,7,0.03
2013-1-6,48.4,40.4,32.2,40.8,37.2,29.7,97,89,67,30.31,30.17,9,0,9,0.04
2013-1-7,52.9,36.2,25.6,36.6,30.2,24.1,96,81,49,30.40,30.29,8,0,8,0.00
2013-1-8,56.6,42.6,27.6,46.5,37.1,26.0,96,82,61,30.40,30.28,9,0,9,0.01
2013-1-9,55.1,51.8,50.1,53.7,49.7,46.1,97,93,83,30.44,30.31,6,0,6,0.08
2013-1-10,51.2,50.3,50.0,50.0,49.3,48.9,97,96,96,30.42,30.38,3,0,3,0.01
2013-1-12,71.2,66.6,62.2,66.2,63.1,59.1,99,89,79,30.15,30.02,9,0,9,0.09
2013-1-13,69.0,64.1,60.9,63.3,61.0,58.0,98,90,80,30.07,29.96,14,1,14,1.39
2013-1-14,61.2,44.5,39.1,60.9,43.7,38.1,99,97,94,30.26,30.04,9,0,9,2.05
2013-1-15,43.2,41.8,39.6,42.9,41.3,38.8,99,98,97,30.16,29.98,6,0,6,1.24
2013-1-16,50.4,45.7,42.8,49.8,45.2,42.0,99,98,96,30.07,29.93,7,0,7,0.21
2013-1-17,43.1,39.3,31.4,42.6,38.0,29.5,98,95,87,30.34,29.71,19,2,19,0.55
2013-1-18,50.2,35.5,27.1,37.2,30.7,26.1,98,84,53,30.54,30.34,7,0,7,0.01
2013-1-19,55.0,37.8,26.0,36.4,30.6,24.8,98,78,43,30.44,30.22,10,1,10,0.00
2013-1-20,59.6,40.0,27.7,42.2,34.0,26.6,98,82,46,30.23,30.12,6,0,6,0.01
2013-1-21,31.8,28.5,26.4,30.3,27.2,25.2,96,95,94,30.15,30.11,0,0,0,0.00
2013-1-22,38.9,30.4,24.4,23.2,15.9,10.5,87,56,36,30.37,30.22,2,0,9,0.00
2013-1-23,51.0,36.7,29.5,32.8,22.2,13.1,91,57,43,30.38,30.17,3,0,11,0.00
2013-1-24,47.7,38.2,26.8,42.1,25.1,12.4,90,61,34,30.38,30.17,3,1,12,0.00
2013-1-25,36.2,33.3,29.4,34.7,25.0,13.7,95,74,43,30.36,30.12,5,2,15,0.08
2013-1-26,50.0,40.0,32.6,36.7,34.2,30.8,100,81,54,30.30,30.18,5,0,8,0.00
2013-1-27,48.5,47.7,46.4,36.6,35.6,34.5,64,63,61,30.37,30.34,3,2,13,0.00
2013-1-28,54.2,48.6,44.9,47.6,40.4,33.6,83,73,63,30.37,30.26,5,2,12,0.00
2013-1-29,68.2,56.4,45.1,60.9,53.4,43.7,97,90,77,30.23,29.97,2,0,9,0.00